User: anonymous   Login
Location: Unspecified
(0.0000°N, 0.0000°E)
Time: 12:33:37
(UTC+01:00)
Language:

Iridium 4 Rocket - Orbit

View from above orbital plane
View from above orbital plane
View from above satellite
View from above satellite

Ground track
Ground track

The orbit data is extracted from the following two-line orbital elements,

1 24797U 97020F   16343.85994678  .00000213  00000-0  41068-4 0  9999
2 24797  86.8974  63.0858 0223917 231.5359 265.1676 14.43932019 30489
Epoch (UTC): 08 December 2016 20:38:19
Eccentricity: 0.0223917
inclination: 86.8974°
perigee height: 586 km
apogee height: 905 km
right ascension of ascending node: 63.0858°
argument of perigee: 231.5359°
revolutions per day: 14.43932019
mean anomaly at epoch: 265.1676°
orbit number at epoch: 3048

The dashed part of the orbit path shows where the satellite is in the earth's shadow,  

DLR